Volver al catálogo

STARLINK-6135

ActivoComunicacionesVLEO
NORAD 56539·PAYLOAD·🇺🇸 United States

Lanzado May 14, 2023 desde Cape Canaveral Space Force Station

Loading…

Próximos Pases (próximas 24 horas)

TLE

ActualizadoSource: CelesTrak SupGP

Época: Sep 14, 2026, 21:33 UTC

1 56539C 23065AN  26257.89840278  .00027146  00000+0  98330-3 0  2574
2 56539  43.0010 238.3770 0000610 281.4192 306.2767 15.27563229    16

Sigue STARLINK-6135 en tiempo real con AllMySat

Download on the App Store